API VERSION: 1.2 API SOURCE: NASA/JPL Horizons API ******************************************************************************* JPL/HORIZONS 61P/Shajn-Schaldach 2025-Dec-12 21:15:14 Rec #:90000668 (+COV) Soln.date: 2024-May-14_12:48:19 # obs: 895 (2017-2024) IAU76/J2000 helio. ecliptic osc. elements (au, days, deg., period=Julian yrs): EPOCH= 2459852.5 ! 2022-Sep-30.0000000 (TDB) RMSW= n.a. EC= .424204833511263 QR= 2.125862381309525 TP= 2459876.315355923 OM= 162.9685064253208 W= 221.6569738125677 IN= 6.000524921292224 A= 3.692046243238321 MA= 356.691276679678 ADIST= 5.258230105167116 PER= 7.0942893899217 N= .138932348 ANGMOM= .029931966 DAN= 4.4325 DDN= 2.29902 L= 24.4692063 B= -3.9842893 MOID= 1.13336003 TP= 2022-Oct-23.8153559230 Comet physical (GM= km^3/s^2; RAD= km): GM= n.a. RAD= 1.2 M1= 11.9 M2= 15.4 k1= 13. k2= 5. PHCOF= .030 Comet non-gravitational force model (AMRAT=m^2/kg;A1-A3=au/d^2;DT=days;R0=au): AMRAT= 0. DT= 0. A1= -1.851830840111E-8 A2= 1.66734957695E-8 A3= -2.946292757988E-9 Standard model: ALN= .1112620426 NK= 4.6142 NM= 2.15 NN= 5.093 R0= 2.808 COMET comments 1: soln ref.= JPL#K222/30, data arc: 2017-01-27 to 2024-02-09 2: k1=13., k2=5., phase coef.=0.03; ******************************************************************************* ******************************************************************************* Ephemeris / API_USER Fri Dec 12 21:15:15 2025 Pasadena, USA / Horizons ******************************************************************************* Target body name: 61P/Shajn-Schaldach {source: JPL#K222/30} Center body name: Earth (399) {source: DE441} Center-site name: GEOCENTRIC ******************************************************************************* Start time : A.D. 2029-Nov-24 00:00:00.0000 UT Stop time : A.D. 2029-Nov-26 00:00:00.0000 UT Step-size : 180 minutes ******************************************************************************* Target pole/equ : undefined Target radii : 1.2 km Center geodetic : 0.0, 0.0, -6378.137 {E-lon(deg),Lat(deg),Alt(km)} Center cylindric: 0.0, 0.0, 0.0 {E-lon(deg),Dxy(km),Dz(km)} Center pole/equ : ITRF93 {East-longitude positive} Center radii : 6378.137, 6378.137, 6356.752 km {Equator_a, b, pole_c} Target primary : Sun Vis. interferer : MOON (R_eq= 1737.400) km {source: DE441} Rel. light bend : Sun {source: DE441} Rel. lght bnd GM: 1.3271E+11 km^3/s^2 Small-body perts: Yes {source: SB441-N16} Atmos refraction: NO (AIRLESS) RA format : HMS Time format : CAL Calendar mode : Mixed Julian/Gregorian EOP file : eop.251212.p260310 EOP coverage : DATA-BASED 1962-JAN-20 TO 2025-DEC-12. PREDICTS-> 2026-MAR-09 Units conversion: 1 au= 149597870.700 km, c= 299792.458 km/s, 1 day= 86400.0 s Table cut-offs 1: Elevation (-90.0deg=NO ),Airmass (>38.000=NO), Daylight (NO ) Table cut-offs 2: Solar elongation ( 0.0,180.0=NO ),Local Hour Angle( 0.0=NO ) Table cut-offs 3: RA/DEC angular rate ( 0.0=NO ) ******************************************************************************* Initial IAU76/J2000 heliocentric ecliptic osculating elements (au, days, deg.): EPOCH= 2459852.5 ! 2022-Sep-30.0000000 (TDB) RMSW= n.a. EC= .424204833511263 QR= 2.125862381309525 TP= 2459876.315355923 OM= 162.9685064253208 W= 221.6569738125677 IN= 6.000524921292224 Equivalent ICRF heliocentric cartesian coordinates (au, au/d): X= 2.053163014848157E+00 Y= 5.691123067604892E-01 Z= 1.156081530080518E-01 VX=-4.426153763654680E-03 VY= 1.265494364441788E-02 VZ= 4.181063639144076E-03 Comet physical (GM= km^3/s^2; RAD= km): GM= n.a. RAD= 1.2 M1= 11.9 M2= 15.4 k1= 13. k2= 5. PHCOF= .030 Comet non-gravitational force model (AMRAT=m^2/kg;A1-A3=au/d^2;DT=days;R0=au): AMRAT= 0. DT= 0. A1= -1.851830840111E-8 A2= 1.66734957695E-8 A3= -2.946292757988E-9 Standard model: ALN= .1112620426 NK= 4.6142 NM= 2.15 NN= 5.093 R0= 2.808 ******************************************************************************* Date__(UT)__HR:MN r rdot ************************************************** $$SOE 2029-Nov-24 00:00 2.134706896779 -0.0835964 2029-Nov-24 03:00 2.134701076369 -0.0776572 2029-Nov-24 06:00 2.134695684706 -0.0717180 2029-Nov-24 09:00 2.134690721798 -0.0657787 2029-Nov-24 12:00 2.134686187649 -0.0598393 2029-Nov-24 15:00 2.134682082265 -0.0538998 2029-Nov-24 18:00 2.134678405649 -0.0479603 2029-Nov-24 21:00 2.134675157806 -0.0420208 2029-Nov-25 00:00 2.134672338739 -0.0360811 2029-Nov-25 03:00 2.134669948451 -0.0301415 2029-Nov-25 06:00 2.134667986945 -0.0242018 2029-Nov-25 09:00 2.134666454224 -0.0182621 2029-Nov-25 12:00 2.134665350288 -0.0123223 2029-Nov-25 15:00 2.134664675139 -0.0063826 2029-Nov-25 18:00 2.134664428778 -0.0004428 2029-Nov-25 21:00 2.134664611205 0.0054969 2029-Nov-26 00:00 2.134665222420 0.0114367 $$EOE ******************************************************************************* Column meaning: TIME Times PRIOR to 1962 are UT1, a mean-solar time closely related to the prior but now-deprecated GMT. Times AFTER 1962 are in UTC, the current civil or "wall-clock" time-scale. UTC is kept within 0.9 seconds of UT1 using integer leap-seconds for 1972 and later years. Conversion from the internal Barycentric Dynamical Time (TDB) of solar system dynamics to the non-uniform civil UT time-scale requested for output has not been determined for UTC times after the next July or January 1st. Therefore, the last known leap-second is used as a constant over future intervals. Time tags refer to the UT time-scale conversion from TDB on Earth regardless of observer location within the solar system, although clock rates may differ due to the local gravity field and no analog to "UT" may be defined for that location. Any 'b' symbol in the 1st-column denotes a B.C. date. First-column blank (" ") denotes an A.D. date. CALENDAR SYSTEM Mixed calendar mode was active such that calendar dates after AD 1582-Oct-15 (if any) are in the modern Gregorian system. Dates prior to 1582-Oct-5 (if any) are in the Julian calendar system, which is automatically extended for dates prior to its adoption on 45-Jan-1 BC. The Julian calendar is useful for matching historical dates. The Gregorian calendar more accurately corresponds to the Earth's orbital motion and seasons. A "Gregorian-only" calendar mode is available if such physical events are the primary interest. NOTE: "n.a." in output means quantity "not available" at the print-time. 'r rdot' = The Sun's apparent range ("r", light-time aberrated) and range-rate ("rdot") relative to the target center, as seen by the observer. A positive "rdot" means the target center was moving away from the Sun, negative means moving toward the Sun. Units: AU and KM/S Computations by ... Solar System Dynamics Group, Horizons On-Line Ephemeris System 4800 Oak Grove Drive, Jet Propulsion Laboratory Pasadena, CA 91109 USA General site: https://ssd.jpl.nasa.gov/ Mailing list: https://ssd.jpl.nasa.gov/email_list.html System news : https://ssd.jpl.nasa.gov/horizons/news.html User Guide : https://ssd.jpl.nasa.gov/horizons/manual.html Connect : browser https://ssd.jpl.nasa.gov/horizons/app.html#/x API https://ssd-api.jpl.nasa.gov/doc/horizons.html command-line telnet ssd.jpl.nasa.gov 6775 e-mail/batch https://ssd.jpl.nasa.gov/ftp/ssd/horizons_batch.txt scripts https://ssd.jpl.nasa.gov/ftp/ssd/SCRIPTS Author : Jon.D.Giorgini@jpl.nasa.gov *******************************************************************************